User: anonymous   Login
Location: Unspecified
(0.0000°N, 0.0000°E)
Time: 01:18:23
(UTC+00:00)
Language:

SRMSAT - Orbit

View from above orbital plane
View from above orbital plane
View from above satellite
View from above satellite

Ground track
Ground track

The orbit data is extracted from the following two-line orbital elements,

1 37841U 11058D   19107.96046088 +.00000307 +00000-0 +23752-4 0  9990
2 37841 019.9728 044.6159 0011767 237.8530 186.7636 14.10629058387876
Epoch (UTC): 17 April 2019 23:03:03
Eccentricity: 0.0011767
inclination: 19.9728°
perigee height: 849 km
apogee height: 866 km
right ascension of ascending node: 44.6159°
argument of perigee: 237.8530°
revolutions per day: 14.10629058
mean anomaly at epoch: 186.7636°
orbit number at epoch: 38787

The dashed part of the orbit path shows where the satellite is in the earth's shadow,  

DLR